SPSUT EPGL-EPKT

Flight info

Callsign SPSUT
Flight time N/A
Altitude 4000
Route INSAB IFR DCT KAX STAY1/0130 KAX DCT INSAB VFR
Aircraft P06T/L-SBDGRY/S

Departure

Time 2026-04-21 19:11
Airport Gliwice-Trynek Airfield (EPGL)

Arrival

Time N/A
Airport Katowice Wojciech Korfanty International Airport (EPKT)
Time Latitude Longitude Altitude Speed Heading
2026-04-21 19:00 50.37868 19.27368 3996 ft 122 kts 65°
2026-04-21 19:00 50.38135 19.28626 3993 ft 122 kts 66°
2026-04-21 19:00 50.38412 19.29883 3994 ft 122 kts 66°
2026-04-21 19:00 50.38689 19.31146 3996 ft 123 kts 66°
2026-04-21 19:01 50.38967 19.32410 3992 ft 123 kts 66°
2026-04-21 19:01 50.39245 19.33676 3994 ft 123 kts 66°
2026-04-21 19:01 50.39427 19.34512 3991 ft 122 kts 66°
2026-04-21 19:01 50.39708 19.35786 3994 ft 122 kts 66°
2026-04-21 19:02 50.39987 19.37050 3991 ft 123 kts 65°
2026-04-21 19:02 50.40519 19.37964 3983 ft 117 kts 26°
2026-04-21 19:02 50.41141 19.38778 3982 ft 120 kts 50°
2026-04-21 19:02 50.41645 19.39810 3986 ft 119 kts 46°
2026-04-21 19:03 50.42143 19.40775 3991 ft 119 kts 49°
2026-04-21 19:03 50.42653 19.41803 3992 ft 119 kts 49°
2026-04-21 19:03 50.43230 19.42707 3988 ft 117 kts 28°
2026-04-21 19:03 50.43999 19.43110 3992 ft 117 kts
2026-04-21 19:04 50.44810 19.42984 3987 ft 119 kts 345°
2026-04-21 19:04 50.45528 19.42323 3991 ft 123 kts 321°
2026-04-21 19:04 50.46010 19.41181 3935 ft 132 kts 296°
2026-04-21 19:04 50.46143 19.39715 3801 ft 138 kts 277°
2026-04-21 19:05 50.46176 19.38255 3626 ft 131 kts 276°
2026-04-21 19:05 50.46209 19.36827 3397 ft 130 kts 282°
2026-04-21 19:05 50.46321 19.35426 3233 ft 130 kts 283°
2026-04-21 19:05 50.46426 19.34023 3074 ft 130 kts 283°
2026-04-21 19:06 50.46532 19.32627 2960 ft 126 kts 282°
2026-04-21 19:06 50.46630 19.31288 2954 ft 121 kts 282°
2026-04-21 19:06 50.46720 19.29997 2976 ft 118 kts 282°
2026-04-21 19:06 50.46779 19.28710 2978 ft 118 kts 279°
2026-04-21 19:07 50.46821 19.27436 2989 ft 118 kts 279°
2026-04-21 19:07 50.46850 19.26146 3015 ft 118 kts 278°
2026-04-21 19:07 50.46891 19.24846 2979 ft 122 kts 280°
2026-04-21 19:07 50.46966 19.23493 2899 ft 126 kts 281°
2026-04-21 19:08 50.47060 19.22129 2749 ft 124 kts 282°
2026-04-21 19:08 50.47136 19.20792 2593 ft 123 kts 279°
2026-04-21 19:08 50.47183 19.19445 2387 ft 124 kts 279°
2026-04-21 19:08 50.47244 19.18082 2157 ft 126 kts 280°
2026-04-21 19:09 50.47325 19.16711 1924 ft 125 kts 280°
2026-04-21 19:09 50.47382 19.15379 1777 ft 113 kts 278°
2026-04-21 19:09 50.47447 19.14230 1570 ft 100 kts 278°
2026-04-21 19:09 50.47523 19.13176 1396 ft 97 kts 280°
2026-04-21 19:10 50.47576 19.12116 1261 ft 94 kts 275°
2026-04-21 19:10 50.47589 19.11158 1137 ft 81 kts 273°
2026-04-21 19:10 50.47593 19.10335 1054 ft 75 kts 273°
2026-04-21 19:10 50.47595 19.09569 1000 ft 58 kts 272°
2026-04-21 19:11 50.47599 19.09036 994 ft 50 kts 271°
2026-04-21 19:11 50.47590 19.08279 1082 ft 78 kts 271°
2026-04-21 19:11 50.47594 19.07404 1324 ft 79 kts 273°
2026-04-21 19:11 50.47588 19.06539 1579 ft 81 kts 271°
2026-04-21 19:12 50.47563 19.05633 1820 ft 88 kts 275°
2026-04-21 19:12 50.47521 19.04611 2086 ft 98 kts 273°
2026-04-21 19:12 50.47475 19.03515 2341 ft 103 kts 273°
2026-04-21 19:12 50.47425 19.02370 2610 ft 107 kts 273°
2026-04-21 19:13 50.47376 19.01195 2872 ft 109 kts 273°
2026-04-21 19:13 50.47326 18.99982 3090 ft 114 kts 273°
2026-04-21 19:13 50.47279 18.98716 3311 ft 118 kts 273°
2026-04-21 19:13 50.47231 18.97428 3522 ft 119 kts 273°
2026-04-21 19:14 50.47186 18.96123 3727 ft 121 kts 271°
2026-04-21 19:14 50.46794 18.94930 3905 ft 131 kts 224°
2026-04-21 19:14 50.45920 18.94501 3978 ft 139 kts 174°
2026-04-21 19:14 50.45075 18.95197 3986 ft 140 kts 125°
2026-04-21 19:15 50.44491 18.96435 4001 ft 143 kts 124°
2026-04-21 19:15 50.43857 18.97602 4001 ft 137 kts 124°
2026-04-21 19:15 50.43358 18.98825 4001 ft 131 kts 114°
2026-04-21 19:15 50.42868 19.00030 3996 ft 131 kts 118°
2026-04-21 19:16 50.42362 19.01208 3996 ft 130 kts 118°
2026-04-21 19:16 50.41851 19.02375 3996 ft 130 kts 119°
2026-04-21 19:16 50.41341 19.03540 3993 ft 129 kts 119°
2026-04-21 19:16 50.40828 19.04699 3992 ft 129 kts 119°
2026-04-21 19:17 50.39812 19.07003 3991 ft 128 kts 119°
2026-04-21 19:17 50.39305 19.08150 3989 ft 128 kts 119°
2026-04-21 19:17 50.38800 19.09292 3991 ft 127 kts 119°
2026-04-21 19:18 50.38295 19.10434 3989 ft 128 kts 118°
2026-04-21 19:18 50.37803 19.11546 4152 ft 121 kts 118°
2026-04-21 19:18 50.37373 19.12637 4354 ft 114 kts 106°
2026-04-21 19:18 50.37080 19.13773 4557 ft 111 kts 106°
2026-04-21 19:19 50.36784 19.14859 4759 ft 109 kts 106°
2026-04-21 19:19 50.36486 19.15945 4963 ft 108 kts 106°
2026-04-21 19:19 50.36177 19.17087 4987 ft 119 kts 106°
2026-04-21 19:19 50.35852 19.18308 5005 ft 123 kts 106°
2026-04-21 19:20 50.35523 19.19560 4999 ft 125 kts 106°
2026-04-21 19:20 50.35192 19.20828 5002 ft 126 kts 106°
2026-04-21 19:20 50.34856 19.22107 5002 ft 127 kts 106°
2026-04-21 19:20 50.34519 19.23397 4999 ft 128 kts 106°
2026-04-21 19:21 50.34183 19.24689 4999 ft 129 kts 106°
2026-04-21 19:21 50.33845 19.25986 4997 ft 129 kts 106°
2026-04-21 19:21 50.33506 19.27280 4995 ft 128 kts 106°
2026-04-21 19:21 50.33167 19.28570 4997 ft 128 kts 106°
2026-04-21 19:22 50.32827 19.29858 4996 ft 128 kts 106°
2026-04-21 19:22 50.32493 19.31117 4995 ft 121 kts 106°
2026-04-21 19:22 50.32174 19.32301 4987 ft 120 kts 106°
2026-04-21 19:22 50.31850 19.33522 4986 ft 123 kts 106°
2026-04-21 19:23 50.31522 19.34768 4994 ft 124 kts 106°
2026-04-21 19:23 50.31193 19.36017 4991 ft 125 kts 106°
2026-04-21 19:23 50.30857 19.37275 4991 ft 125 kts 106°
2026-04-21 19:23 50.30526 19.38535 4993 ft 125 kts 106°
2026-04-21 19:24 50.30194 19.39797 4993 ft 126 kts 106°
2026-04-21 19:24 50.29876 19.41014 4995 ft 126 kts 106°
2026-04-21 19:24 50.29543 19.42284 4995 ft 127 kts 106°
2026-04-21 19:24 50.29214 19.43537 4996 ft 127 kts 106°
2026-04-21 19:25 50.28877 19.44812 4993 ft 127 kts 106°
2026-04-21 19:25 50.28541 19.46084 4995 ft 126 kts 106°
2026-04-21 19:25 50.28209 19.47354 4996 ft 126 kts 106°
2026-04-21 19:25 50.27875 19.48624 4995 ft 126 kts 106°
2026-04-21 19:26 50.27540 19.49891 4989 ft 126 kts 106°
2026-04-21 19:26 50.27203 19.51151 4997 ft 126 kts 106°
2026-04-21 19:26 50.26870 19.52417 4993 ft 126 kts 106°
2026-04-21 19:26 50.26535 19.53683 4996 ft 126 kts 106°
2026-04-21 19:27 50.26200 19.54952 4995 ft 126 kts 106°
2026-04-21 19:27 50.25864 19.56219 4999 ft 126 kts 106°
2026-04-21 19:27 50.25528 19.57492 4998 ft 128 kts 106°
2026-04-21 19:27 50.25191 19.58776 4996 ft 127 kts 106°
2026-04-21 19:28 50.24853 19.60056 4998 ft 127 kts 106°
2026-04-21 19:28 50.24517 19.61334 4997 ft 127 kts 106°
2026-04-21 19:28 50.24182 19.62611 4992 ft 127 kts 106°
2026-04-21 19:28 50.23851 19.63873 4993 ft 127 kts 106°
2026-04-21 19:29 50.23515 19.65149 4997 ft 127 kts 106°
2026-04-21 19:29 50.23199 19.66425 4999 ft 124 kts 99°
2026-04-21 19:29 50.23017 19.67745 4993 ft 125 kts 96°
2026-04-21 19:29 50.22829 19.69064 4994 ft 124 kts 96°
2026-04-21 19:30 50.22647 19.70380 4993 ft 124 kts 96°
2026-04-21 19:30 50.22461 19.71691 4993 ft 124 kts 96°
2026-04-21 19:30 50.22277 19.72986 4999 ft 124 kts 96°
2026-04-21 19:30 50.22088 19.74296 5001 ft 123 kts 96°
2026-04-21 19:31 50.21903 19.75606 4998 ft 123 kts 96°
2026-04-21 19:31 50.21717 19.76911 4996 ft 123 kts 96°
2026-04-21 19:31 50.21528 19.78222 5002 ft 125 kts 96°
2026-04-21 19:31 50.21339 19.79545 5000 ft 125 kts 96°
2026-04-21 19:32 50.21154 19.80871 4999 ft 125 kts 96°
2026-04-21 19:32 50.20964 19.82190 4998 ft 125 kts 96°
2026-04-21 19:32 50.20775 19.83511 4993 ft 125 kts 96°
2026-04-21 19:32 50.20586 19.84832 4996 ft 125 kts 96°
2026-04-21 19:33 50.20462 19.85706 5001 ft 125 kts 96°
2026-04-21 19:33 50.20214 19.87477 4995 ft 124 kts 96°
2026-04-21 19:33 50.20027 19.88792 4995 ft 124 kts 96°
2026-04-21 19:33 50.19838 19.90107 4994 ft 125 kts 96°
2026-04-21 19:34 50.19787 19.91424 4990 ft 119 kts 75°
2026-04-21 19:34 50.19917 19.92704 4993 ft 120 kts 77°
2026-04-21 19:34 50.20029 19.93990 4993 ft 120 kts 76°
2026-04-21 19:34 50.20143 19.95278 4994 ft 120 kts 77°
2026-04-21 19:35 50.20259 19.96573 4995 ft 121 kts 76°
2026-04-21 19:35 50.20491 19.99164 4991 ft 120 kts 76°
2026-04-21 19:35 50.20605 20.00457 4992 ft 121 kts 76°
2026-04-21 19:36 50.20721 20.01756 4994 ft 121 kts 76°
2026-04-21 19:36 50.20839 20.03055 4994 ft 121 kts 76°
2026-04-21 19:36 50.20958 20.04356 4998 ft 121 kts 76°
2026-04-21 19:36 50.21076 20.05656 4991 ft 120 kts 76°
2026-04-21 19:37 50.21189 20.06947 4995 ft 120 kts 76°
2026-04-21 19:37 50.21303 20.08238 4994 ft 120 kts 76°
2026-04-21 19:37 50.21419 20.09534 4998 ft 121 kts 76°
2026-04-21 19:37 50.21536 20.10838 4989 ft 122 kts 76°
2026-04-21 19:38 50.21657 20.12146 4990 ft 122 kts 76°
2026-04-21 19:38 50.21776 20.13459 4988 ft 122 kts 76°
2026-04-21 19:38 50.21856 20.14348 4988 ft 122 kts 76°
2026-04-21 19:38 50.22008 20.16056 4988 ft 116 kts 76°
2026-04-21 19:39 50.22123 20.17321 4983 ft 119 kts 76°
2026-04-21 19:39 50.22042 20.18628 4965 ft 130 kts 111°
2026-04-21 19:39 50.21328 20.19508 4972 ft 137 kts 158°
2026-04-21 19:39 50.20418 20.19968 4983 ft 137 kts 156°
2026-04-21 19:40 50.19519 20.20493 4990 ft 139 kts 156°
2026-04-21 19:40 50.18611 20.21014 4982 ft 139 kts 159°
2026-04-21 19:40 50.17644 20.21183 4992 ft 141 kts 176°
2026-04-21 19:40 50.16672 20.21288 4991 ft 140 kts 174°
2026-04-21 19:41 50.15698 20.21391 4994 ft 140 kts 174°
2026-04-21 19:41 50.14727 20.21495 5001 ft 140 kts 174°
2026-04-21 19:41 50.13791 20.21171 4970 ft 141 kts 216°
2026-04-21 19:41 50.13277 20.19965 4953 ft 134 kts 259°
2026-04-21 19:42 50.13056 20.18514 4778 ft 140 kts 262°
2026-04-21 19:42 50.12842 20.17029 4600 ft 141 kts 264°
2026-04-21 19:42 50.12798 20.15530 4418 ft 138 kts 280°
2026-04-21 19:42 50.12709 20.14019 4237 ft 143 kts 259°
2026-04-21 19:43 50.12485 20.12503 4060 ft 144 kts 265°
2026-04-21 19:43 50.12294 20.10988 3985 ft 140 kts 262°
2026-04-21 19:43 50.12073 20.09520 3980 ft 139 kts 263°
2026-04-21 19:43 50.11882 20.08026 3844 ft 145 kts 263°
2026-04-21 19:44 50.11650 20.06467 3682 ft 150 kts 262°
2026-04-21 19:44 50.11445 20.04877 3540 ft 150 kts 263°
2026-04-21 19:44 50.11211 20.03284 3387 ft 150 kts 261°
2026-04-21 19:44 50.11000 20.01714 3233 ft 147 kts 264°
2026-04-21 19:45 50.10785 20.00170 3075 ft 145 kts 261°
2026-04-21 19:45 50.10569 19.98653 2992 ft 139 kts 264°
2026-04-21 19:45 50.10378 19.97209 2987 ft 134 kts 262°
2026-04-21 19:45 50.10172 19.95794 2909 ft 136 kts 264°
2026-04-21 19:46 50.09980 19.94317 2724 ft 142 kts 262°
2026-04-21 19:46 50.09754 19.92802 2537 ft 144 kts 263°
2026-04-21 19:46 50.09563 19.91287 2331 ft 142 kts 262°
2026-04-21 19:46 50.09337 19.89786 2130 ft 142 kts 261°
2026-04-21 19:47 50.09141 19.88284 1926 ft 141 kts 263°
2026-04-21 19:47 50.08929 19.86806 1726 ft 140 kts 259°
2026-04-21 19:47 50.08724 19.85342 1524 ft 135 kts 261°
2026-04-21 19:47 50.08539 19.83975 1341 ft 124 kts 258°
2026-04-21 19:48 50.08354 19.82712 1182 ft 115 kts 260°
2026-04-21 19:48 50.08212 19.81620 1041 ft 94 kts 260°
2026-04-21 19:48 50.08121 19.80984 940 ft 86 kts 261°
2026-04-21 19:48 50.07972 19.79885 795 ft 76 kts 261°
2026-04-21 19:49 50.07903 19.79391 782 ft 61 kts 257°
2026-04-21 19:49 50.07839 19.79076 783 ft 12 kts 156°
2026-04-21 19:49 50.07730 19.79096 783 ft 12 kts 167°
2026-04-21 19:49 50.07645 19.79125 783 ft 12 kts 167°
2026-04-21 19:50 50.07622 19.79218 783 ft 13 kts 78°
2026-04-21 19:50 50.07641 19.79351 783 ft 13 kts 78°
2026-04-21 19:50 50.07660 19.79492 783 ft 11 kts 79°
2026-04-21 19:50 50.07680 19.79632 783 ft 14 kts 78°
2026-04-21 19:51 50.07698 19.79761 783 ft 12 kts 77°
2026-04-21 19:51 50.07716 19.79895 783 ft 9 kts 76°
2026-04-21 19:51 50.07727 19.79977 783 ft 6 kts 89°
2026-04-21 19:51 50.07687 19.80009 783 ft 2 kts 167°
2026-04-21 19:52 50.07678 19.80012 783 ft 0 kts 167°